Home   Weather   Unst   Past weeks
Flag for United Kingdom

Past Weather in Unst, Scotland, United Kingdom — Yesterday and Last 2 Weeks

Now
38 °F

Overcast.


Feels Like: 27 °F
Forecast: 35 / 26 °F
Wind: 24 mph from Northwest

Location: Lerwick

Current Time: Apr 2, 2020 at 5:53:12 pm

Latest Report: Apr 2, 2020 at 4:00 pm


Visibility: 11 mi

Pressure: 29.44 "Hg

Humidity: 73%

Dew Point: 30 °F

Location of UnstLocation

Past Weather in Unst — Graph

°F

Unst Temperature Yesterday

Maximum temperature yesterday: 46 °F (at 12:00 pm)
Minimum temperature yesterday: 43 °F (at 2:00 am)
Average temperature yesterday: 44 °F

High & Low Weather Summary for the Past Weeks

 TemperatureHumidityPressure
High49 °F (Mar 30, 3:00 pm)100% (Mar 24, 6:00 am)30.91 "Hg (Mar 24, 6:00 am)
Low32 °F (Mar 29, 5:00 am)47% (Mar 28, 1:00 pm)29.21 "Hg (Apr 2, 8:00 am)
Average41 °F80%30.24 "Hg
* Reported Mar 18 3:00 pm — Apr 2 4:00 pm, Unst. Weather by CustomWeather, © 2020

Note: Actual official high and low records may vary slightly from our data, if they occured in-between our weather recording intervals... More about our weather records

Unst Weather History for the Previous 24 Hours

Scroll right to see more
 ConditionsComfort  
Time TempWeatherWind HumidityBarometerVisibility
4:00 pm
Thu, Apr 2
38 °FOvercast.24 mph73%29.44 "Hg11 mi
3:00 pm37 °FPartly sunny.26 mph82%29.41 "Hg7 mi
2:00 pm37 °FOvercast.23 mph86%29.35 "Hg14 mi
1:00 pm38 °FOvercast.31 mph95%29.29 "Hg11 mi
12:00 pm37 °FHail. Overcast.40 mph86%29.23 "Hg7 mi
11:00 am38 °FOvercast.47 mph68%29.23 "Hg9 mi
10:00 am36 °FPartly sunny.41 mph75%29.21 "Hg10 mi
9:00 am35 °FHail. Partly sunny.41 mph73%29.21 "Hg10 mi
8:00 am35 °FChilly.43 mph91%29.21 "Hg11 mi
7:00 am32 °FLight mixture of precip. Cloudy.39 mph93%29.23 "Hg1 mi
6:00 am33 °FLots of rain. Overcast.29 mph98%29.23 "Hg3 mi
5:00 am36 °FLots of rain. Overcast.41 mph89%29.23 "Hg9 mi
4:00 am37 °FLots of rain. Overcast.45 mph89%29.29 "Hg6 mi
3:00 am41 °FQuite cool.39 mph81%29.32 "Hg11 mi
2:00 am43 °FQuite cool.40 mph73%29.38 "Hg8 mi
1:00 am42 °FQuite cool.39 mph73%29.44 "Hg8 mi
12:00 am40 °FLots of rain. Overcast.38 mph84%29.53 "Hg6 mi
11:00 pm
Wed, Apr 1
43 °FQuite cool.32 mph64%29.58 "Hg11 mi
10:00 pm43 °FQuite cool.28 mph70%29.62 "Hg9 mi
9:00 pm44 °FQuite cool.29 mph66%29.66 "Hg11 mi
8:00 pm43 °FPassing clouds.30 mph62%29.69 "Hg13 mi
7:00 pm43 °FOvercast.31 mph64%29.70 "Hg10 mi
6:00 pm43 °FPartly sunny.32 mph59%29.72 "Hg11 mi
5:00 pm44 °FOvercast.30 mph60%29.72 "Hg11 mi
Weather by CustomWeather, © 2020

See weather overview

Advertising